Regional Weather Roundup
Issued by NWS

Home | Current Version | Previous Version | Text Only | Print | Product List | Glossary Off
Versions: 1 2 3 4 5 6 7 8 9 10 11 12 13 14 15 16 17 18 19 20 21 22 23 24 25 26 27 28 29 30 31 32 33 34 35 36 37 38 39 40 41 42 43 44 45 46 47 48 49 50

000
ASUS43 KBIS 220320
RWRND

NORTH DAKOTA REGIONAL WEATHER ROUNDUP
NATIONAL WEATHER SERVICE BISMARCK ND
1000 PM CDT THU AUG 21 2014

NOTE: "FAIR" INDICATES FEW OR NO CLOUDS BELOW 12,000 FEET WITH NO
SIGNIFICANT WEATHER AND/OR OBSTRUCTIONS TO VISIBILITY.


NDZ001>003-009>011-017-220400-
NORTHWEST NORTH DAKOTA

CITY           SKY/WX    TMP DP  RH WIND       PRES   REMARKS
WILLISTON      MOCLDY    66  57  72 N5        30.01R
MINOT          MOCLDY    64  61  90 NW8       29.98R
MINOT AFB      MOCLDY    65  64  97 N7        29.98R
$$

NDZ018>021-031>035-040>046-220400-
SOUTHWEST NORTH DAKOTA

CITY           SKY/WX    TMP DP  RH WIND       PRES   REMARKS
BISMARCK       CLEAR     71  62  73 N3        29.96R
DICKINSON      CLOUDY    65  60  84 NE5       29.99R
GARRISON         N/A     68  64  87 N5        29.99R
HETTINGER ARPT MOCLDY    67  60  78 NE7       29.98R
$$

NDZ004>008-012>016-024-026-027-054-220400-
NORTHEAST NORTH DAKOTA

CITY           SKY/WX    TMP DP  RH WIND       PRES   REMARKS
GRAND FORKS    MOCLDY    70  69  97 NW3       29.86R
GRND FRKS AFB  CLOUDY    68  68 100 NW2       29.89R
DEVILS LAKE    CLEAR     66  61  82 N9        29.90S
$$

NDZ022-023-025-028>030-036>039-047>053-220400-
SOUTHEAST NORTH DAKOTA

CITY           SKY/WX    TMP DP  RH WIND       PRES   REMARKS
FARGO          CLEAR     69  67  93 E3        29.85F
JAMESTOWN      CLEAR     69  66  90 W3        29.90S
$$



USA.gov is the U.S. government's official web portal to all federal, state and local government web resources and services.